����������;��������(kWh)
2018-01-22 00:00;97,4
2018-01-22 00:15;98
2018-01-22 00:30;98,1
2018-01-22 00:45;98,55
2018-01-22 01:00;98
2018-01-22 01:15;100,6
2018-01-22 01:30;98,15
2018-01-22 01:45;99,7
2018-01-22 02:00;99,3
2018-01-22 02:15;100,05
2018-01-22 02:30;101,25
2018-01-22 02:45;99
2018-01-22 03:00;98,15
2018-01-22 03:15;99,05
2018-01-22 03:30;98,2
2018-01-22 03:45;99,75
2018-01-22 04:00;97,75
2018-01-22 04:15;97,2
2018-01-22 04:30;95,25
2018-01-22 04:45;94,15
2018-01-22 05:00;93,7
2018-01-22 05:15;93,7
2018-01-22 05:30;95,95
2018-01-22 05:45;97
2018-01-22 06:00;98,1
2018-01-22 06:15;98,1
2018-01-22 06:30;99,15
2018-01-22 06:45;99,5
2018-01-22 07:00;99,7
2018-01-22 07:15;103,25
2018-01-22 07:30;151,1
2018-01-22 07:45;168,55
2018-01-22 08:00;187,8
2018-01-22 08:15;149,7
2018-01-22 08:30;148
2018-01-22 08:45;165,55
2018-01-22 09:00;187,65
2018-01-22 09:15;252,95
2018-01-22 09:30;209,35
2018-01-22 09:45;220,3
2018-01-22 10:00;224,55
2018-01-22 10:15;242,95
2018-01-22 10:30;223,65
2018-01-22 10:45;227,5
2018-01-22 11:00;232,85
2018-01-22 11:15;239,6
2018-01-22 11:30;239,6
2018-01-22 11:45;247,95
2018-01-22 12:00;249,95
2018-01-22 12:15;251,2
2018-01-22 12:30;248,7
2018-01-22 12:45;252,15
2018-01-22 13:00;249,3
2018-01-22 13:15;251,95
2018-01-22 13:30;256,15
2018-01-22 13:45;255,2
2018-01-22 14:00;251,15
2018-01-22 14:15;288,65
2018-01-22 14:30;287,25
2018-01-22 14:45;234,55
2018-01-22 15:00;239,55
2018-01-22 15:15;226,4
2018-01-22 15:30;218,45
2018-01-22 15:45;209,05
2018-01-22 16:00;201,25
2018-01-22 16:15;198,5
2018-01-22 16:30;190,25
2018-01-22 16:45;190,6
2018-01-22 17:00;180,7
2018-01-22 17:15;187
2018-01-22 17:30;188,6
2018-01-22 17:45;192,3
2018-01-22 18:00;183,9
2018-01-22 18:15;180,05
2018-01-22 18:30;181,7
2018-01-22 18:45;176,85
2018-01-22 19:00;178,7
2018-01-22 19:15;166,8
2018-01-22 19:30;163,45
2018-01-22 19:45;160,05
2018-01-22 20:00;155,05
2018-01-22 20:15;146,85
2018-01-22 20:30;152,3
2018-01-22 20:45;153
2018-01-22 21:00;150,35
2018-01-22 21:15;147,25
2018-01-22 21:30;143,2
2018-01-22 21:45;139,4
2018-01-22 22:00;136,5
2018-01-22 22:15;132,9
2018-01-22 22:30;127,2
2018-01-22 22:45;124,7
2018-01-22 23:00;130,25
2018-01-22 23:15;125,7
2018-01-22 23:30;124,3
2018-01-22 23:45;127,55
2018-01-23 00:00;114,15
2018-01-23 00:15;118,4
2018-01-23 00:30;113,85
2018-01-23 00:45;115,15
2018-01-23 01:00;112
2018-01-23 01:15;114,65
2018-01-23 01:30;113,45
2018-01-23 01:45;111,65
2018-01-23 02:00;115
2018-01-23 02:15;111,7
2018-01-23 02:30;108,45
2018-01-23 02:45;108,7
2018-01-23 03:00;108,85
2018-01-23 03:15;109,6
2018-01-23 03:30;107,5
2018-01-23 03:45;110,3
2018-01-23 04:00;107
2018-01-23 04:15;109,4
2018-01-23 04:30;107,05
2018-01-23 04:45;105,3
2018-01-23 05:00;104,8
2018-01-23 05:15;106,05
2018-01-23 05:30;107,4
2018-01-23 05:45;104,05
2018-01-23 06:00;109,2
2018-01-23 06:15;104,6
2018-01-23 06:30;109,75
2018-01-23 06:45;106,7
2018-01-23 07:00;108,8
2018-01-23 07:15;112,75
2018-01-23 07:30;163,6
2018-01-23 07:45;164,45
2018-01-23 08:00;137,85
2018-01-23 08:15;141,25
2018-01-23 08:30;156,8
2018-01-23 08:45;163,55
2018-01-23 09:00;181,6
2018-01-23 09:15;253,45
2018-01-23 09:30;267,45
2018-01-23 09:45;214,65
2018-01-23 10:00;238,9
2018-01-23 10:15;228,45
2018-01-23 10:30;240,75
2018-01-23 10:45;245,4
2018-01-23 11:00;255,35
2018-01-23 11:15;262,15
2018-01-23 11:30;265,75
2018-01-23 11:45;264,95
2018-01-23 12:00;261,9
2018-01-23 12:15;264
2018-01-23 12:30;262,9
2018-01-23 12:45;299
2018-01-23 13:00;266,9
2018-01-23 13:15;273,45
2018-01-23 13:30;278,25
2018-01-23 13:45;278,4
2018-01-23 14:00;260
2018-01-23 14:15;262,85
2018-01-23 14:30;260,05
2018-01-23 14:45;249,7
2018-01-23 15:00;243,9
2018-01-23 15:15;236,05
2018-01-23 15:30;225,35
2018-01-23 15:45;212,15
2018-01-23 16:00;211,45
2018-01-23 16:15;202,15
2018-01-23 16:30;200,65
2018-01-23 16:45;192
2018-01-23 17:00;196,15
2018-01-23 17:15;193,45
2018-01-23 17:30;199,5
2018-01-23 17:45;195,05
2018-01-23 18:00;186,65
2018-01-23 18:15;187,8
2018-01-23 18:30;170,1
2018-01-23 18:45;167,95
2018-01-23 19:00;166,85
2018-01-23 19:15;164,95
2018-01-23 19:30;159,05
2018-01-23 19:45;151,1
2018-01-23 20:00;144
2018-01-23 20:15;142,45
2018-01-23 20:30;141,35
2018-01-23 20:45;144,35
2018-01-23 21:00;134,15
2018-01-23 21:15;135,6
2018-01-23 21:30;133,2
2018-01-23 21:45;136
2018-01-23 22:00;126,95
2018-01-23 22:15;128,95
2018-01-23 22:30;126,25
2018-01-23 22:45;128,35
2018-01-23 23:00;127,65
2018-01-23 23:15;118,15
2018-01-23 23:30;117,85
2018-01-23 23:45;120,55
2018-01-24 00:00;106,2
2018-01-24 00:15;107,5
2018-01-24 00:30;105,1
2018-01-24 00:45;105,8
2018-01-24 01:00;105,7
2018-01-24 01:15;106,15
2018-01-24 01:30;105,8
2018-01-24 01:45;104,65
2018-01-24 02:00;107,55
2018-01-24 02:15;104,85
2018-01-24 02:30;108,1
2018-01-24 02:45;106,65
2018-01-24 03:00;103,15
2018-01-24 03:15;103,7
2018-01-24 03:30;102,1
2018-01-24 03:45;105,1
2018-01-24 04:00;104,25
2018-01-24 04:15;104,8
2018-01-24 04:30;102,45
2018-01-24 04:45;104,2
2018-01-24 05:00;99,6
2018-01-24 05:15;103,7
2018-01-24 05:30;102,5
2018-01-24 05:45;105,2
2018-01-24 06:00;104,65
2018-01-24 06:15;102,7
2018-01-24 06:30;102,6
2018-01-24 06:45;113,3
2018-01-24 07:00;117,6
2018-01-24 07:15;120,75
2018-01-24 07:30;174,55
2018-01-24 07:45;171,9
2018-01-24 08:00;159,35
2018-01-24 08:15;145,2
2018-01-24 08:30;165,4
2018-01-24 08:45;174,6
2018-01-24 09:00;243,5
2018-01-24 09:15;222,2
2018-01-24 09:30;225,8
2018-01-24 09:45;225,5
2018-01-24 10:00;239,45
2018-01-24 10:15;252,75
2018-01-24 10:30;252,4
2018-01-24 10:45;262,15
2018-01-24 11:00;267,05
2018-01-24 11:15;266,9
2018-01-24 11:30;277,95
2018-01-24 11:45;274,35
2018-01-24 12:00;271
2018-01-24 12:15;271,95
2018-01-24 12:30;272,05
2018-01-24 12:45;274,35
2018-01-24 13:00;269,8
2018-01-24 13:15;255,9
2018-01-24 13:30;263,15
2018-01-24 13:45;255,4
2018-01-24 14:00;254,7
2018-01-24 14:15;254,35
2018-01-24 14:30;255,5
2018-01-24 14:45;256,35
2018-01-24 15:00;247
2018-01-24 15:15;290,25
2018-01-24 15:30;244,85
2018-01-24 15:45;243,85
2018-01-24 16:00;221,2
2018-01-24 16:15;217,15
2018-01-24 16:30;216,9
2018-01-24 16:45;221,75
2018-01-24 17:00;225,95
2018-01-24 17:15;216,25
2018-01-24 17:30;218,25
2018-01-24 17:45;215
2018-01-24 18:00;215,7
2018-01-24 18:15;219,5
2018-01-24 18:30;220,55
2018-01-24 18:45;217,25
2018-01-24 19:00;206,75
2018-01-24 19:15;205,05
2018-01-24 19:30;197,8
2018-01-24 19:45;187,5
2018-01-24 20:00;182,1
2018-01-24 20:15;170,9
2018-01-24 20:30;172,85
2018-01-24 20:45;168,3
2018-01-24 21:00;162,25
2018-01-24 21:15;151,6
2018-01-24 21:30;155,55
2018-01-24 21:45;150,65
2018-01-24 22:00;147,25
2018-01-24 22:15;146,45
2018-01-24 22:30;142,1
2018-01-24 22:45;140,35
2018-01-24 23:00;139,5
2018-01-24 23:15;136,05
2018-01-24 23:30;133,75
2018-01-24 23:45;133,75
2018-01-25 00:00;134,9
2018-01-25 00:15;136,05
2018-01-25 00:30;135,85
2018-01-25 00:45;130,9
2018-01-25 01:00;131,2
2018-01-25 01:15;128,3
2018-01-25 01:30;127,75
2018-01-25 01:45;130,05
2018-01-25 02:00;128,55
2018-01-25 02:15;129,9
2018-01-25 02:30;127,95
2018-01-25 02:45;127,8
2018-01-25 03:00;125,9
2018-01-25 03:15;124,85
2018-01-25 03:30;127,1
2018-01-25 03:45;123,2
2018-01-25 04:00;121,4
2018-01-25 04:15;119,7
2018-01-25 04:30;120,5
2018-01-25 04:45;121,15
2018-01-25 05:00;116
2018-01-25 05:15;120,7
2018-01-25 05:30;117,75
2018-01-25 05:45;120,85
2018-01-25 06:00;120,85
2018-01-25 06:15;120,5
2018-01-25 06:30;123,85
2018-01-25 06:45;124,35
2018-01-25 07:00;127,85
2018-01-25 07:15;138,4
2018-01-25 07:30;144,55
2018-01-25 07:45;148,85
2018-01-25 08:00;159,5
2018-01-25 08:15;159,95
2018-01-25 08:30;181,8
2018-01-25 08:45;217,8
2018-01-25 09:00;233,6
2018-01-25 09:15;284,2
2018-01-25 09:30;255,9
2018-01-25 09:45;243,55
2018-01-25 10:00;237,4
2018-01-25 10:15;241,75
2018-01-25 10:30;253,9
2018-01-25 10:45;260,25
2018-01-25 11:00;271,5
2018-01-25 11:15;310,75
2018-01-25 11:30;284,75
2018-01-25 11:45;282,25
2018-01-25 12:00;274
2018-01-25 12:15;275,9
2018-01-25 12:30;272,35
2018-01-25 12:45;271,2
2018-01-25 13:00;271,55
2018-01-25 13:15;303,8
2018-01-25 13:30;277,75
2018-01-25 13:45;277,9
2018-01-25 14:00;279
2018-01-25 14:15;283,8
2018-01-25 14:30;312,95
2018-01-25 14:45;285,05
2018-01-25 15:00;268
2018-01-25 15:15;260,1
2018-01-25 15:30;246,45
2018-01-25 15:45;237,9
2018-01-25 16:00;233,45
2018-01-25 16:15;222,25
2018-01-25 16:30;211,85
2018-01-25 16:45;219
2018-01-25 17:00;215,15
2018-01-25 17:15;203,25
2018-01-25 17:30;203,2
2018-01-25 17:45;209,2
2018-01-25 18:00;197,3
2018-01-25 18:15;190,4
2018-01-25 18:30;177,65
2018-01-25 18:45;176,65
2018-01-25 19:00;172
2018-01-25 19:15;170,35
2018-01-25 19:30;164,35
2018-01-25 19:45;162,05
2018-01-25 20:00;157,05
2018-01-25 20:15;153,4
2018-01-25 20:30;152,1
2018-01-25 20:45;149,3
2018-01-25 21:00;147,6
2018-01-25 21:15;143,9
2018-01-25 21:30;143,25
2018-01-25 21:45;142
2018-01-25 22:00;134,25
2018-01-25 22:15;127,1
2018-01-25 22:30;125,25
2018-01-25 22:45;124,05
2018-01-25 23:00;133,4
2018-01-25 23:15;129,3
2018-01-25 23:30;133,8
2018-01-25 23:45;136,4
2018-01-26 00:00;123,2
2018-01-26 00:15;123,85
2018-01-26 00:30;119,2
2018-01-26 00:45;120,15
2018-01-26 01:00;116,2
2018-01-26 01:15;119,05
2018-01-26 01:30;119,65
2018-01-26 01:45;118,8
2018-01-26 02:00;119,15
2018-01-26 02:15;119,75
2018-01-26 02:30;122,7
2018-01-26 02:45;119,05
2018-01-26 03:00;119,9
2018-01-26 03:15;119,05
2018-01-26 03:30;121,15
2018-01-26 03:45;116,6
2018-01-26 04:00;117,55
2018-01-26 04:15;117,3
2018-01-26 04:30;117,3
2018-01-26 04:45;110,95
2018-01-26 05:00;108,75
2018-01-26 05:15;111,25
2018-01-26 05:30;112,65
2018-01-26 05:45;110,3
2018-01-26 06:00;114,25
2018-01-26 06:15;112,65
2018-01-26 06:30;117,6
2018-01-26 06:45;112,05
2018-01-26 07:00;114,45
2018-01-26 07:15;120,55
2018-01-26 07:30;141,85
2018-01-26 07:45;139,8
2018-01-26 08:00;150,15
2018-01-26 08:15;160
2018-01-26 08:30;232,25
2018-01-26 08:45;201,6
2018-01-26 09:00;214,95
2018-01-26 09:15;231,4
2018-01-26 09:30;237,65
2018-01-26 09:45;238,15
2018-01-26 10:00;247,75
2018-01-26 10:15;262,1
2018-01-26 10:30;273,4
2018-01-26 10:45;276,6
2018-01-26 11:00;304,8
2018-01-26 11:15;285,2
2018-01-26 11:30;290,25
2018-01-26 11:45;287,85
2018-01-26 12:00;296,95
2018-01-26 12:15;302,35
2018-01-26 12:30;293
2018-01-26 12:45;296,8
2018-01-26 13:00;296,8
2018-01-26 13:15;295,35
2018-01-26 13:30;290,45
2018-01-26 13:45;287,15
2018-01-26 14:00;284,55
2018-01-26 14:15;322,6
2018-01-26 14:30;286,9
2018-01-26 14:45;269,7
2018-01-26 15:00;273
2018-01-26 15:15;260,95
2018-01-26 15:30;247,85
2018-01-26 15:45;240
2018-01-26 16:00;234
2018-01-26 16:15;225,05
2018-01-26 16:30;221,3
2018-01-26 16:45;222,9
2018-01-26 17:00;218,1
2018-01-26 17:15;208,45
2018-01-26 17:30;208,85
2018-01-26 17:45;210,95
2018-01-26 18:00;198,6
2018-01-26 18:15;196,95
2018-01-26 18:30;184,55
2018-01-26 18:45;178,65
2018-01-26 19:00;174,55
2018-01-26 19:15;171,95
2018-01-26 19:30;172,9
2018-01-26 19:45;165,35
2018-01-26 20:00;154,25
2018-01-26 20:15;152
2018-01-26 20:30;152,4
2018-01-26 20:45;148,55
2018-01-26 21:00;145,25
2018-01-26 21:15;140,05
2018-01-26 21:30;138,15
2018-01-26 21:45;124,95
2018-01-26 22:00;124,5
2018-01-26 22:15;125,2
2018-01-26 22:30;127,6
2018-01-26 22:45;123,15
2018-01-26 23:00;126,6
2018-01-26 23:15;122,75
2018-01-26 23:30;128,8
2018-01-26 23:45;131,6
2018-01-27 00:00;116,8
2018-01-27 00:15;121,3
2018-01-27 00:30;119,4
2018-01-27 00:45;113,6
2018-01-27 01:00;114,2
2018-01-27 01:15;114,6
2018-01-27 01:30;115,7
2018-01-27 01:45;113,1
2018-01-27 02:00;115,1
2018-01-27 02:15;116,6
2018-01-27 02:30;113,95
2018-01-27 02:45;112,35
2018-01-27 03:00;111,7
2018-01-27 03:15;112,85
2018-01-27 03:30;111,3
2018-01-27 03:45;110,55
2018-01-27 04:00;111,9
2018-01-27 04:15;111,35
2018-01-27 04:30;109,25
2018-01-27 04:45;109,55
2018-01-27 05:00;106,8
2018-01-27 05:15;105,6
2018-01-27 05:30;103,85
2018-01-27 05:45;101,9
2018-01-27 06:00;103,45
2018-01-27 06:15;103,3
2018-01-27 06:30;103,85
2018-01-27 06:45;103,7
2018-01-27 07:00;104,2
2018-01-27 07:15;103,65
2018-01-27 07:30;100,8
2018-01-27 07:45;98,9
2018-01-27 08:00;95,7
2018-01-27 08:15;96,75
2018-01-27 08:30;96,3
2018-01-27 08:45;96,2
2018-01-27 09:00;91,8
2018-01-27 09:15;95,8
2018-01-27 09:30;93,95
2018-01-27 09:45;94,15
2018-01-27 10:00;97,1
2018-01-27 10:15;100,45
2018-01-27 10:30;95,15
2018-01-27 10:45;103,4
2018-01-27 11:00;108,6
2018-01-27 11:15;107,7
2018-01-27 11:30;110,1
2018-01-27 11:45;115
2018-01-27 12:00;115,15
2018-01-27 12:15;114,35
2018-01-27 12:30;119
2018-01-27 12:45;119,7
2018-01-27 13:00;117,8
2018-01-27 13:15;118,5
2018-01-27 13:30;118,3
2018-01-27 13:45;113,9
2018-01-27 14:00;110,45
2018-01-27 14:15;115,25
2018-01-27 14:30;109,75
2018-01-27 14:45;110,95
2018-01-27 15:00;113,45
2018-01-27 15:15;112,25
2018-01-27 15:30;110,3
2018-01-27 15:45;117,25
2018-01-27 16:00;114,75
2018-01-27 16:15;115,7
2018-01-27 16:30;113,75
2018-01-27 16:45;116,55
2018-01-27 17:00;120,1
2018-01-27 17:15;121,8
2018-01-27 17:30;128,5
2018-01-27 17:45;129,05
2018-01-27 18:00;126,35
2018-01-27 18:15;130
2018-01-27 18:30;127,85
2018-01-27 18:45;128,65
2018-01-27 19:00;130
2018-01-27 19:15;134
2018-01-27 19:30;131,6
2018-01-27 19:45;127,3
2018-01-27 20:00;127,4
2018-01-27 20:15;123,4
2018-01-27 20:30;122,55
2018-01-27 20:45;125,35
2018-01-27 21:00;122,1
2018-01-27 21:15;122
2018-01-27 21:30;118,1
2018-01-27 21:45;119,25
2018-01-27 22:00;114,1
2018-01-27 22:15;113,55
2018-01-27 22:30;113,75
2018-01-27 22:45;112,85
2018-01-27 23:00;112,45
2018-01-27 23:15;110,55
2018-01-27 23:30;116,9
2018-01-27 23:45;118,8
2018-01-28 00:00;103,7
2018-01-28 00:15;107,2
2018-01-28 00:30;105,45
2018-01-28 00:45;101,65
2018-01-28 01:00;103,15
2018-01-28 01:15;105,05
2018-01-28 01:30;104,25
2018-01-28 01:45;105,1
2018-01-28 02:00;105,95
2018-01-28 02:15;104,8
2018-01-28 02:30;107,6
2018-01-28 02:45;106,2
2018-01-28 03:00;106,25
2018-01-28 03:15;102,05
2018-01-28 03:30;105,05
2018-01-28 03:45;101,1
2018-01-28 04:00;102,25
2018-01-28 04:15;101,75
2018-01-28 04:30;101,3
2018-01-28 04:45;98,95
2018-01-28 05:00;97
2018-01-28 05:15;98,7
2018-01-28 05:30;99
2018-01-28 05:45;100,25
2018-01-28 06:00;99,95
2018-01-28 06:15;101,35
2018-01-28 06:30;101,6
2018-01-28 06:45;102,3
2018-01-28 07:00;99,05
2018-01-28 07:15;102,8
2018-01-28 07:30;100,5
2018-01-28 07:45;97,1
2018-01-28 08:00;97,15
2018-01-28 08:15;93,25
2018-01-28 08:30;91,9
2018-01-28 08:45;92,8
2018-01-28 09:00;90,3
2018-01-28 09:15;92,35
2018-01-28 09:30;91,05
2018-01-28 09:45;93,25
2018-01-28 10:00;93
2018-01-28 10:15;90,8
2018-01-28 10:30;94,25
2018-01-28 10:45;91,5
2018-01-28 11:00;91,6
2018-01-28 11:15;99,6
2018-01-28 11:30;103,2
2018-01-28 11:45;109,15
2018-01-28 12:00;109,15
2018-01-28 12:15;105,7
2018-01-28 12:30;105,4
2018-01-28 12:45;106,1
2018-01-28 13:00;107,7
2018-01-28 13:15;104,4
2018-01-28 13:30;103
2018-01-28 13:45;102,45
2018-01-28 14:00;101,45
2018-01-28 14:15;101,85
2018-01-28 14:30;104,85
2018-01-28 14:45;106,05
2018-01-28 15:00;103,95
2018-01-28 15:15;103,35
2018-01-28 15:30;100,6
2018-01-28 15:45;99,45
2018-01-28 16:00;104
2018-01-28 16:15;102,6
2018-01-28 16:30;104,5
2018-01-28 16:45;108,7
2018-01-28 17:00;109
2018-01-28 17:15;111,95
2018-01-28 17:30;112,75
2018-01-28 17:45;116,2
2018-01-28 18:00;112,2
2018-01-28 18:15;115,2
2018-01-28 18:30;115,5
2018-01-28 18:45;118,1
2018-01-28 19:00;125,4
2018-01-28 19:15;127,2
2018-01-28 19:30;127,85
2018-01-28 19:45;120,7
2018-01-28 20:00;117,95
2018-01-28 20:15;119,55
2018-01-28 20:30;121,8
2018-01-28 20:45;117,9
2018-01-28 21:00;119,55
2018-01-28 21:15;116,75
2018-01-28 21:30;117,75
2018-01-28 21:45;117,45
2018-01-28 22:00;112,1
2018-01-28 22:15;112,15
2018-01-28 22:30;110,7
2018-01-28 22:45;110,35
2018-01-28 23:00;114,9
2018-01-28 23:15;110,05
2018-01-28 23:30;111,1
2018-01-28 23:45;113,2

